Weather History for KTZR - April, 2014

Change the Weather History Date:

Tuesday, April 29, 2014

  Actual Average Record
Temperature  
Mean Temperature 64 °F -  
Max Temperature 73 °F 66 °F 78 °F (2004)
Min Temperature 54 °F 47 °F 35 °F (1997)
Degree Days  
Heating Degree Days 2    
Growing Degree Days 14 (Base 50)    
Moisture  
Dew Point 58 °F    
Average Humidity 89    
Maximum Humidity 100    
Minimum Humidity 50    
Precipitation  
Precipitation 0.79 in - - ()
Sea Level Pressure  
Sea Level Pressure 29.71 in    
Wind  
Wind Speed 11 mph (SSE)    
Max Wind Speed 20 mph    
Max Gust Speed 36 mph    
Visibility 8 miles    
Events Rain , Thunderstorm    
Averages and records for this station are not official NWS values.
T = Trace of Precipitation, MM = Missing Value Source: NWS Daily Summary

Daily Weather History Graph

Daily Weather History Graph

Search for Another Location

Airport or City:

Trip Planner

Search our weather history database for the weather conditions in past years. The results will help you decide how hot, cold, wet, or windy it might be!

Date:

Astronomy

Apr. 29, 2014 Rise Set
Actual Time 6:35 AM EDT 8:25 PM EDT
Civil Twilight 6:06 AM EDT 8:54 PM EDT
Nautical Twilight 5:30 AM EDT 9:29 PM EDT
Astronomical Twilight 4:53 AM EDT 10:07 PM EDT
Moon 6:52 AM EDT (4/29) 9:04 PM EDT (4/29)
Length of Visible Light 14h 48m
Length of Day
13h 49m
New Moon, 0% of the Moon is Illuminated
Apr 29
New Moon
May 6
First Quarter
May 14
Full
May 21
Last Quarter
May 28
New

Hourly Weather History & Observations

Time (EDT) Temp. Dew Point Humidity Pressure Visibility Wind Dir Wind Speed Gust Speed Precip Events Conditions
12:15 AM 59.0 °F 59.0 °F 100% 29.74 in 2.5 mi SSE 11.5 mph - 0.07 in Rain Heavy Rain
12:35 AM 59.5 °F 59.5 °F 100% 29.72 in 3.0 mi SSE 12.7 mph - 0.15 in Rain Rain
12:55 AM 60.1 °F 60.1 °F 100% 29.72 in 5.0 mi SSE 11.5 mph 20.7 mph 0.19 in Rain Rain
1:15 AM 60.1 °F 60.1 °F 100% 29.71 in 7.0 mi SE 9.2 mph - 0.03 in Rain Heavy Rain
1:35 AM 60.1 °F 60.1 °F 100% 29.69 in 5.0 mi SE 11.5 mph 17.3 mph 0.08 in Rain Heavy Rain
1:55 AM 59.9 °F 59.9 °F 100% 29.67 in 10.0 mi ESE 10.4 mph - 0.08 in Rain Light Rain
2:15 AM 60.1 °F 60.1 °F 100% 29.67 in 10.0 mi SE 11.5 mph 16.1 mph N/A   Overcast
2:35 AM 60.1 °F 59.9 °F 99% 29.67 in 10.0 mi SE 10.4 mph - N/A Rain Light Rain
3:00 AM 60.1 °F 59.9 °F 99% 29.67 in 10.0 mi SE 6.9 mph - N/A Rain Rain
3:15 AM 60.3 °F 59.9 °F 99% 29.66 in 7.0 mi SE 10.4 mph - 0.03 in Rain Rain
3:35 AM 60.6 °F 60.3 °F 99% 29.65 in 7.0 mi SE 10.4 mph - 0.07 in Rain Rain
3:55 AM 60.8 °F 60.4 °F 99% 29.65 in 7.0 mi ESE 10.4 mph 17.3 mph 0.10 in Rain Rain
4:15 AM 60.8 °F 60.3 °F 98% 29.64 in 7.0 mi ESE 11.5 mph 18.4 mph 0.04 in Rain Rain
4:35 AM 60.4 °F 60.1 °F 99% 29.61 in 5.0 mi East 13.8 mph - 0.15 in Rain Heavy Rain
4:55 AM 60.4 °F 60.1 °F 99% 29.60 in 7.0 mi East 11.5 mph - 0.21 in Rain Rain
5:15 AM 60.3 °F 60.1 °F 99% 29.57 in 7.0 mi East 11.5 mph 16.1 mph 0.05 in Rain Heavy Rain
5:35 AM 60.3 °F 60.1 °F 99% 29.58 in 7.0 mi ESE 11.5 mph 17.3 mph 0.10 in Rain Light Rain
5:55 AM 60.3 °F 60.3 °F 100% 29.57 in 10.0 mi ESE 16.1 mph 19.6 mph 0.11 in   Overcast
6:15 AM 60.8 °F 60.3 °F 98% 29.58 in 10.0 mi SE 10.4 mph 18.4 mph N/A   Overcast
6:35 AM 60.8 °F 60.6 °F 99% 29.58 in 10.0 mi SE 12.7 mph 20.7 mph N/A   Overcast
6:55 AM 61.3 °F 60.8 °F 98% 29.59 in 10.0 mi SSE 16.1 mph 21.9 mph N/A Rain Light Rain
7:15 AM 60.8 °F 60.8 °F 100% 29.60 in 4.0 mi South 15.0 mph 20.7 mph N/A Rain Rain
7:47 AM 62.6 °F 60.8 °F 94% 29.61 in 6.0 mi SSE 12.7 mph 19.6 mph N/A Rain Light Rain
8:47 AM 62.6 °F 60.8 °F 94% 29.62 in 5.0 mi South 9.2 mph - N/A Rain Rain
10:11 AM 62.6 °F 62.6 °F 100% 29.63 in 10.0 mi South 9.2 mph - N/A   Overcast
11:50 AM 64.4 °F 60.8 °F 88% 29.69 in 10.0 mi SSW 15.0 mph 26.5 mph N/A   Mostly Cloudy
12:50 PM - - N/A% 29.71 in 10.0 mi South 19.6 mph 26.5 mph N/A   Mostly Cloudy
1:50 PM 69.8 °F 59.0 °F 68% 29.72 in 10.0 mi SSW 18.4 mph - N/A   Scattered Clouds
2:50 PM 71.6 °F 57.2 °F 60% 29.74 in 10.0 mi North - - N/A   Mostly Cloudy
3:55 PM 73.4 °F 53.6 °F 50% 29.74 in 10.0 mi North - - N/A   Scattered Clouds
4:58 PM 73.4 °F 53.6 °F 50% 29.73 in 10.0 mi South 13.8 mph - N/A   Scattered Clouds
6:58 PM 73.4 °F 53.6 °F 50% 29.72 in 10.0 mi South 8.1 mph - N/A   Clear
7:35 PM 70.0 °F 52.9 °F 55% 29.74 in 10.0 mi SSE 5.8 mph - N/A   Scattered Clouds
7:55 PM 69.4 °F 53.6 °F 57% 29.76 in 10.0 mi SW 8.1 mph - N/A Rain Light Rain
8:15 PM 57.9 °F 53.2 °F 84% 29.80 in 5.0 mi West 16.1 mph 35.7 mph 0.01 in Rain , Thunderstorm Light Thunderstorms and Rain
8:35 PM 57.2 °F 53.6 °F 88% 29.77 in 10.0 mi WNW 15.0 mph 26.5 mph 0.01 in   Scattered Clouds
8:55 PM 57.2 °F 54.0 °F 89% 29.79 in 10.0 mi WNW 10.4 mph 17.3 mph 0.01 in   Clear
9:15 PM 57.6 °F 53.8 °F 87% 29.88 in 10.0 mi SW 6.9 mph - N/A Thunderstorm Mostly Cloudy
9:35 PM 57.4 °F 53.6 °F 87% 29.87 in 10.0 mi Calm Calm - N/A   Overcast
10:35 PM 56.3 °F 52.3 °F 87% 29.89 in 10.0 mi NW 4.6 mph - 0.01 in Rain Light Rain
10:55 PM 55.9 °F 52.2 °F 87% 29.94 in 10.0 mi SW 6.9 mph - 0.02 in Rain Rain
11:15 PM 54.9 °F 53.1 °F 94% 29.94 in 7.0 mi West 4.6 mph - 0.07 in Rain Heavy Rain
11:35 PM 54.5 °F 52.9 °F 94% 29.90 in 10.0 mi NNW 4.6 mph - 0.07 in   Overcast
11:55 PM 54.0 °F 52.2 °F 94% 29.89 in 10.0 mi North 3.5 mph - 0.07 in   Mostly Cloudy